Location: Silverdale
(47.6506°N, 122.6941°W)
Time: 04:09:40
(UTC+00:00)

Altair - Pass Details

Date: 06 October 2022
Orbit: 1501 x 1682 km, 47.2° (Epoch: 04 December)

Event Time Altitude Azimuth Distance (km) Brightness Sun altitude
Rises 15:13:29 0° 270° (W) 4,813 9.5 8.4°
Reaches altitude 10° 15:16:33 10° 270° (W) 3,850 9.0 8.9°
Maximum altitude 15:26:30 88° 183° (S) 1,666 7.9 10.5°
Drops below altitude 10° 15:36:42 10° 95° (E) 3,944 11.5 12.1°
Sets 15:39:52 0° 96° (E) 4,934 11.7 12.6°
